Regional Weather Roundup
Issued by NWS

Home | Current Version | Previous Version | Graphics & Text | Print | Product List | Glossary On
Versions: 1 2 3 4 5 6 7 8 9 10 11 12 13 14 15 16 17 18 19 20 21 22 23 24 25 26 27 28 29 30 31 32 33 34 35 36 37 38 39 40 41 42 43 44 45 46 47 48 49 50
000
ASUS43 KMPX 221701
RWRMN
WEATHER ROUNDUP FOR MINNESOTA
NATIONAL WEATHER SERVICE TWIN CITIES/CHANHASSEN MN
1200 PM CDT TUE JUL 22 2014


NOTE: "FAIR" INDICATES FEW OR NO CLOUDS BELOW 12,000 FEET WITH NO
SIGNIFICANT WEATHER AND/OR OBSTRUCTIONS TO VISIBILITY. N/A MEANS
CURRENT SKY AND/OR WEATHER CONDITIONS ARE NOT AVAILABLE.

MNZ060>063-068>070-221800-
   Twin Cities Metro

CITY           SKY/WX    TMP DP  RH WIND       PRES   REMARKS
TWIN CITIES    PTSUNNY   79  64  60 NW15      29.99R
ST PAUL        PTSUNNY   76  65  68 N13       29.98S
CRYSTAL        PTSUNNY   77  63  61 NW10      29.98R
LAKEVILLE      PTSUNNY   77  64  65 NW14      29.99R
EDEN PRAIRIE   PTSUNNY   78  65  63 NW14      29.99R
SOUTH ST PAUL  PTSUNNY   78  64  61 NW12G17   29.97S
LAKE ELMO      PTSUNNY   77  68  73 NW9       29.99S
$$
MNZ001>005-007-008-013>017-022>024-027-028-221800-
   Northwest Minnesota

CITY           SKY/WX    TMP DP  RH WIND       PRES   REMARKS
BEMIDJI        SUNNY     72  55  55 NW14G21   30.07R
HALLOCK        SUNNY     72  57  60 N10       30.12R
ROSEAU         SUNNY     73  55  53 N14       30.09R
THIEF RVR FALL SUNNY     70  52  52 N14G21    30.12R
FOSSTON        SUNNY     70  59  68 NW15      30.11R
DETROIT LAKES  SUNNY     72  55  56 N13G25    30.12S
MOORHEAD       SUNNY     73  61  64 N15G21    30.13R
PARK RAPIDS    SUNNY     74  54  49 NW17G24   30.07R
$$
MNZ006-009>011-018-025>026-221800-
   North Central Minnesota

CITY           SKY/WX    TMP DP  RH WIND       PRES   REMARKS
BAUDETTE       SUNNY     70  57  63 NW17G25   30.06R
FLAG ISLAND    SUNNY     70  54  56 NW15      30.05R
INTL FALLS     SUNNY     71  58  63 NW16      30.00R
WASKISH        SUNNY     72  55  56 W12       30.05R
BIG FORK       MOSUNNY   73  59  60 W8        30.02R
LONGVILLE      SUNNY     72  59  64 NW12G24   30.03R
GRAND RAPIDS   MOSUNNY   72  59  64 NW15G28   30.01R
CRANE LAKE     CLOUDY    66  61  82 NW10G18   29.99R
ORR            PTSUNNY   72  59  64 NW10G16   29.96R
COOK           MOSUNNY   72  61  68 NW10G20   29.98R
$$
MNZ012-019>021-037-221800-
   Northeast Minnesota

CITY           SKY/WX    TMP DP  RH WIND       PRES   REMARKS
DULUTH         MOSUNNY   74  62  66 NW20G29   29.92S
ELY            PTSUNNY   68  61  77 N9G22     29.94R
HIBBING        MOSUNNY   75  62  64 NW18G25   29.97S
DULUTH HARBOR  PTSUNNY   75  64  69 NW17G25   29.91S
TWO HARBORS    PTSUNNY   73  63  68 NW8G18    29.88R
SILVER BAY     MOSUNNY   72  66  83 W3        29.87R
GRAND MARAIS     N/A     74  63  68 MISG      29.79R
G MARAIS ARPRT PTSUNNY   70  61  73 NW13G30   29.85R
$$
MNZ029>031-032-039>041-046>048-054>057-064-221800-
   West Central Minnesota

CITY           SKY/WX    TMP DP  RH WIND       PRES   REMARKS
FERGUS FALLS   SUNNY     72  55  56 N12G21    30.10R
WHEATON        MOSUNNY   70  59  68 NW14G23   30.12S
MORRIS         MOSUNNY   73  63  68 N20G25    30.07S
ALEXANDRIA     MOSUNNY   74  59  59 NW18      30.08R
ELBOW LAKE     FAIR      73  60  63 N18       30.10R
WADENA         SUNNY     72  57  60 NW15G22   30.07S
GLENWOOD       SUNNY     75  61  60 NW18G24   30.08R
APPLETON       MOSUNNY   79  57  47 N16G23    30.07R
BENSON         MOSUNNY   75  63  64 N16G24    30.06S
MADISON        MOSUNNY   79  61  53 N15G21    30.10R
WILLMAR        FAIR      77  59  53 N16G25    30.06R
$$
MNZ033>034-036-042>043-049>051-058-059-221800-
   Central Minnesota

CITY           SKY/WX    TMP DP  RH WIND       PRES   REMARKS
ST CLOUD       PTSUNNY   77  62  59 NW13G22   30.01R
SAUK CENTRE    FAIR      74  61  62 N13G22    30.05R
PAYNESVILLE    HVY RAIN  74  59  59 NW14G22   30.05R
AITKIN         MOSUNNY   75  64  69 NW12G21   30.00R
PINE RIVER     SUNNY     73  57  56 NW17      30.07R
BRAINERD       MOSUNNY   75  60  59 N17G23    30.02R
STAPLES        SUNNY     73  57  56 NW15      30.05R
LONG PRAIRIE   FAIR      73  61  64 NW13      30.06R
LITTLE FALLS   MOSUNNY   73  59  60 NW9G18    30.02R
LITCHFIELD     MOSUNNY   79  66  65 NW13      30.04R
BUFFALO        PTSUNNY   76  63  64 NW12      30.02R
MAPLE LAKE     MOSUNNY   78  65  64 N15       30.02R
$$
MNZ037-044-045-052-053-221800-
   East Central Minnesota

CITY           SKY/WX    TMP DP  RH WIND       PRES   REMARKS
PRINCETON      PTSUNNY   79  64  61 NW16G22   30.00R
MORA           PTSUNNY   72  61  68 N15G24    30.00R
CAMBRIDGE      PTSUNNY   75  63  64 NW8       29.98R
RUSH CITY      CLOUDY    74  63  68 NW10G18   29.99R
MOOSE LAKE     PTSUNNY   73  61  64 NW13G18   29.96R
HINCKLEY       PTSUNNY   73  63  68 NW18G25   29.97S
CLOQUET        CLOUDY    73  63  68 NW13G24   29.95R
MCGREGOR       MOSUNNY   73  63  68 NW17G25   29.99S
$$
MNZ071>073-080-081-089-090-097-098-221800-
   Southwest Minnesota

CITY           SKY/WX    TMP DP  RH WIND       PRES   REMARKS
MONTEVIDEO     MOSUNNY   77  63  61 NE17G26   30.08R
GRANITE FALLS  MOSUNNY   75  63  66 NW13G21   30.08S
CANBY          MOSUNNY   76  59  56 N13G18    30.12R
MARSHALL       MOSUNNY   73  63  68 N16G26    30.08R
REDWOOD FALLS  MOSUNNY   77  64  64 N13G23    30.05R
OLIVIA         MOSUNNY   75  63  64 NW17      30.04S
PIPESTONE      MOSUNNY   75  63  64 N12G18    30.12R
WINDOM         PTSUNNY   75  63  64 N17       30.08R
WORTHINGTON    PTSUNNY   75  64  69 N13       30.11R
JACKSON        MOSUNNY   77  64  65 NW9       30.08R
TRACY          MOSUNNY   75  65  70 N14G21    30.09R
SLAYTON        PTSUNNY   74  63  68 N10G20    30.11R
$$
MNZ065>067-074>077-082>085-091>093-221800-
   South Central Minnesota

CITY           SKY/WX    TMP DP  RH WIND       PRES   REMARKS
MANKATO        CLOUDY    79  64  61 NW17      30.00S
NEW ULM        SUNNY     73  66  78 NW14      30.04R
ST JAMES       MOSUNNY   77  64  65 NW15G22   30.05R
FAIRMONT       SUNNY     79  64  61 N12       30.05R
GLENCOE        PTSUNNY   78  63  61 NW9       30.02R
FARIBAULT      PTSUNNY   82  63  51 NW12G18   30.00R
OWATONNA       MOSUNNY   81  66  61 NW17      30.00R
WASECA         MOSUNNY   77  61  57 NW14G22   30.03R
ALBERT LEA     SUNNY     81  66  61 NW10G16   30.00R
$$
MNZ078>079-086>088-094>096-221800-
   Southeast Minnesota

CITY           SKY/WX    TMP DP  RH WIND       PRES   REMARKS
ROCHESTER      SUNNY     81  68  64 NW13      29.98R
RED WING       MOSUNNY   82  64  54 N13       29.96R
STANTON        PTSUNNY   80  65  60 NW13      29.97R
DODGE CENTER   SUNNY     79  68  69 NW17G23   30.00R
WINONA         SUNNY     82  64  54 N15G21    29.93R
AUSTIN         SUNNY     82  64  54 NW12G17   29.98R
PRESTON        SUNNY     80  74  81 N9        29.97R
$$
ABBREVIATIONS USED IN REMARKS
   TC - TEMPERATURES IN CELSIUS
  WCI - WIND CHILL INDEX
   HX - HEAT INDEX
  VSB - VISIBILITY
$$


USA.gov is the U.S. government's official web portal to all federal, state and local government web resources and services.